This is the latest recevied weather packets stored in our database for station/object N1MCJ. If no packets are shown the sender has not sent any weather packets the latest 10 day(s).
| Time | Temp. | Humidity | Pressure | Rain* | Wind** | Luminosity | Snow |
|---|---|---|---|---|---|---|---|
| 1777544193 | 8.33° C | 99% | 999 hPa | 0 mm | - | 0 W/m² | - |
| 1777543288 | 8.33° C | 99% | 999 hPa | 0 mm | - | 0 W/m² | - |
| 1777542383 | 8.33° C | 99% | 998.8 hPa | 0 mm | - | 0 W/m² | - |
| 1777541480 | 8.33° C | 99% | 998.9 hPa | 0 mm | - | 0 W/m² | - |
| 1777540576 | 8.33° C | 99% | 999 hPa | 1.78 mm | - | 0 W/m² | - |
| 1777539676 | 8.33° C | 99% | 999.2 hPa | 0 mm | - | 0 W/m² | - |
| 1777538777 | 8.33° C | 99% | 999 hPa | 0 mm | - | 0 W/m² | - |
| 1777537875 | 8.33° C | 99% | 999.3 hPa | 1.27 mm | - | 0 W/m² | - |
| 1777536975 | 8.33° C | 99% | 999.5 hPa | 3.05 mm | - | 0 W/m² | - |
| 1777536072 | 8.33° C | 99% | 999.5 hPa | 1.78 mm | - | 0 W/m² | - |
| 1777535167 | 8.33° C | 99% | 999.8 hPa | 0 mm | - | 0 W/m² | - |
| 1777534263 | 8.33° C | 99% | 999.7 hPa | 0 mm | - | 0 W/m² | - |
| 1777533360 | 8.33° C | 99% | 999.8 hPa | 3.05 mm | - | 0 W/m² | - |
| 1777532455 | 8.33° C | 99% | 999.7 hPa | 0 mm | - | 0 W/m² | - |
| 1777531550 | 8.33° C | 99% | 1000.3 hPa | 0 mm | - | 0 W/m² | - |
| 1777530649 | 8.33° C | 99% | 1000.3 hPa | 1.78 mm | - | 0 W/m² | - |
| 1777529745 | 8.33° C | 99% | 1000.3 hPa | 1.78 mm | - | 0 W/m² | - |
| 1777528846 | 8.33° C | 99% | 1000.7 hPa | 1.27 mm | - | 0 W/m² | - |
| 1777527944 | 8.33° C | 99% | 1000.4 hPa | 1.78 mm | - | 0 W/m² | - |
| 1777527042 | 8.33° C | 99% | 1000.3 hPa | 1.27 mm | - | 0 W/m² | - |
| 1777526139 | 8.33° C | 99% | 1001.2 hPa | 0 mm | - | 0 W/m² | - |
| 1777525237 | 8.33° C | 98% | 1001.5 hPa | 1.78 mm | - | 0 W/m² | - |
| 1777524334 | 8.89° C | 98% | 1001.6 hPa | 0 mm | - | 0 W/m² | - |
| 1777523434 | 8.89° C | 97% | 1001.6 hPa | 0 mm | - | 0 W/m² | - |
| 1777522530 | 8.89° C | 96% | 1001.9 hPa | 0 mm | - | 0 W/m² | - |
* Rain latest hour (hover to see other rain measurements)
** Current wind speed in m/s (hover to see current wind gust speed)